Flag for Czech Republic Weather past 2 weeks in Tábor, Czech Republic

Now
61 °F

Scattered clouds.


Feels Like: 61 °F
Forecast: 45 / 69 °F
Wind: 5 mph from Southwest

Location: Kocelovice

Current Time: May 28, 2015 at 4:40:22 PM

Latest Report: May 28, 2015 at 4:00 PM


Visibility: 41 mi

Pressure: 29.98 "Hg

Humidity: 45%

Dew point: 40 °F

Location of TáborLocation

Historic Weather in Tábor — Graph

°F

Tábor temperature yesterday

Maximum temperature yesterday: 52 °F (at 5:00 PM)
Minimum temperature yesterday: 45 °F (at 5:00 AM)
Average temperature yesterday: 48 °F

Past Weeks' High & Low Weather Summary

 TemperatureHumidityPressure
High71 °F (May 18, 6:00 PM)98% (May 20, 2:00 AM)30.32 "Hg (May 20, 2:00 AM)
Low38 °F (May 18, 5:00 AM)31% (May 13, 4:00 PM)29.70 "Hg (May 18, 8:00 PM)
Average53 °F70%30.03 "Hg
* Reported May 13 3:00 PM — May 28 3:00 PM, Tábor, Weather by CustomWeather, © 2015

Note: Actual official high and low records may vary slightly from our data, if they occured in-between our weather recording intervals... More about our weather records

Advertising

Tábor weather history for previous 24 hours

 ConditionsComfort  
Time TempWeatherWind HumidityBarometerVisibility
3:00 PM
Thu, May 28
60 °FOvercast.5 mph46%29.99 "Hg40 mi
2:00 PM58 °FPartly sunny.5 mph50%30.02 "Hg37 mi
1:00 PM55 °FOvercast.5 mph49%30.06 "Hg37 mi
12:00 PM55 °FOvercast.5 mph51%30.08 "Hg40 mi
11:00 AM54 °FOvercast.5 mph50%30.10 "Hg40 mi
10:00 AM51 °FOvercast.3 mph54%30.11 "Hg40 mi
9:00 AM50 °FOvercast.N/A69%30.12 "Hg37 mi
8:00 AM48 °FOvercast.2 mph74%30.14 "Hg31 mi
7:00 AM45 °FCool.1 mph79%30.14 "Hg12 mi
4:00 AM45 °FCool.1 mph77%30.15 "Hg12 mi
3:00 AM45 °FCool.N/A76%30.16 "Hg12 mi
2:00 AM46 °FCool.1 mph75%30.16 "Hg12 mi
1:00 AM46 °FCool.2 mph72%30.17 "Hg12 mi
12:00 AM46 °FCool.2 mph73%30.18 "Hg12 mi
10:00 PM
Wed, May 27
47 °FOvercast.3 mph66%30.18 "Hg37 mi
9:00 PM48 °FOvercast.3 mph62%30.17 "Hg43 mi
8:00 PM49 °FOvercast.5 mph59%30.17 "Hg37 mi
7:00 PM50 °FOvercast.5 mph58%30.16 "Hg25 mi
6:00 PM50 °FOvercast.5 mph54%30.16 "Hg25 mi
5:00 PM52 °FOvercast.5 mph54%30.15 "Hg25 mi
4:00 PM49 °FOvercast.6 mph62%30.17 "Hg22 mi
Weather by CustomWeather, © 2015

See weather overviewHow to use our weather pages